Fort Lauderdale, FL

1:43 AM EST on February 14, 2016 (GMT -0500)
Coral Ridge | | Change Station
CLOSE
Current Station
Personal Weather Station
Location: Fort Lauderdale, FL
Elevation: 23 ft
Nearby Weather Stations

Elev 23 ft 26.15 °N, 80.11 °W | Updated 11 seconds ago

Clear
Clear
61.2 °F
Feels Like 61.2 °F
N
0.0
Wind Variable Wind from NNW
Gusts 0.0 mph

Today
High -- | Low -- °F
--% Chance of Precip.
Yesterday
High -- | Low -- °F
Precip. -- in
Pressure 30.21 in
Visibility 10.0 miles
Clouds Clear
Dew Point 53 °F
Humidity 75%
Rainfall 0.00 in
Snow Depth Not available.
6:57 AM 6:12 PM
Waxing Crescent, 38% visible
METAR KFXE 140553Z 34005KT 10SM CLR 16/11 A3020 RMK AO2 SLP229 T01560111 10200 20156 55003
Pressure 30.21 in
Visibility 10.0 miles
Clouds Clear
Dew Point 53 °F
Humidity 75%
Rainfall 0.00 in
Snow Depth Not available.
6:57 AM 6:12 PM
Waxing Crescent, 38% visible
METAR KFXE 140553Z 34005KT 10SM CLR 16/11 A3020 RMK AO2 SLP229 T01560111 10200 20156 55003

10-Day Weather Forecast

Almanac

Astronomy

Feb. 14, 2016 Rise Set
Actual Time
Civil Twilight
Nautical Twilight
Astronomical Twilight
Moon
Length of Visible Light
Length of Day
Tomorrow will be .
, % of the Moon is Illuminated

Today's Extremes

State Highs State Lows

Community

WunderPhotos

Upload Photos

1,892,757 photos uploaded!

WunderBlog® & News

Nearby

Air Quality

  Air Quality AQ Index Pollutant
Not available.

Snow Depth

Station Depth Elevation

Earthquake Activity

City Distance Mag. Time & Date
Minimum magnitude displayed is 2.5.

Coastal Water Temperatures

Place Temperature

Stations

Nearby Weather Stations

Station Location Temp. Windchill Dew Point Humidity Wind Precip. Elev Updated Type
                   

Watches & Warnings

There are currently no watches in effect.